TimeCDT,TemperatureF,Dew PointF,Humidity,Sea Level PressureIn,VisibilityMPH,Wind Direction,Wind SpeedMPH,Gust SpeedMPH,PrecipitationIn,Events,Conditions,WindDirDegrees,DateUTC
12:11 AM,69.8,66.2,88,29.73,10.0,ESE,3.5,-,N/A,,Clear,110,2013-06-26 05:11:00
12:30 AM,69.8,66.2,88,29.73,10.0,Calm,Calm,-,N/A,,Clear,0,2013-06-26 05:30:00
12:51 AM,69.8,66.2,88,29.72,10.0,SE,4.6,-,N/A,,Clear,130,2013-06-26 05:51:00
1:10 AM,69.8,66.2,88,29.71,10.0,SE,4.6,-,N/A,,Clear,140,2013-06-26 06:10:00
1:31 AM,69.8,66.2,88,29.71,10.0,SE,3.5,-,N/A,,Clear,140,2013-06-26 06:31:00
1:51 AM,69.8,66.2,88,29.70,10.0,SSE,3.5,-,N/A,,Clear,150,2013-06-26 06:51:00
2:11 AM,69.8,66.2,88,29.70,10.0,SSE,3.5,-,N/A,,Clear,150,2013-06-26 07:11:00
2:31 AM,69.8,68.0,94,29.71,10.0,Calm,Calm,-,N/A,,Clear,0,2013-06-26 07:31:00
2:51 AM,69.8,68.0,94,29.72,10.0,Calm,Calm,-,N/A,,Clear,0,2013-06-26 07:51:00
3:10 AM,69.8,68.0,94,29.70,7.0,Calm,Calm,-,N/A,,Clear,0,2013-06-26 08:10:00
3:31 AM,69.8,68.0,94,29.70,4.0,Calm,Calm,-,N/A,,Clear,0,2013-06-26 08:31:00
3:51 AM,68.0,66.2,94,29.70,4.0,Calm,Calm,-,N/A,,Clear,0,2013-06-26 08:51:00
4:11 AM,68.0,68.0,100,29.71,4.0,Calm,Calm,-,N/A,,Clear,0,2013-06-26 09:11:00
4:31 AM,68.0,66.2,94,29.70,1.0,Calm,Calm,-,N/A,,Scattered Clouds,0,2013-06-26 09:31:00
4:51 AM,68.0,66.2,94,29.71,1.2,Calm,Calm,-,N/A,,Overcast,0,2013-06-26 09:51:00
5:11 AM,68.0,64.4,88,29.72,2.5,Calm,Calm,-,N/A,,Overcast,0,2013-06-26 10:11:00
5:31 AM,68.0,66.2,94,29.71,3.0,Calm,Calm,-,N/A,,Overcast,0,2013-06-26 10:31:00
5:51 AM,69.8,68.0,94,29.71,4.0,Calm,Calm,-,N/A,,Overcast,0,2013-06-26 10:51:00
6:11 AM,69.8,69.8,100,29.70,2.5,Calm,Calm,-,N/A,,Overcast,0,2013-06-26 11:11:00
6:31 AM,69.8,69.8,100,29.71,2.5,Calm,Calm,-,N/A,,Overcast,0,2013-06-26 11:31:00
6:51 AM,69.8,69.8,100,29.70,2.0,Calm,Calm,-,N/A,,Overcast,0,2013-06-26 11:51:00
7:11 AM,69.8,69.8,100,29.69,2.5,Calm,Calm,-,N/A,,Overcast,0,2013-06-26 12:11:00
7:31 AM,69.8,69.8,100,29.68,3.0,SSE,5.8,-,N/A,,Overcast,150,2013-06-26 12:31:00
7:51 AM,69.8,69.8,100,29.69,5.0,SSW,5.8,-,N/A,,Overcast,200,2013-06-26 12:51:00
8:11 AM,69.8,69.8,100,29.69,5.0,SSW,4.6,-,N/A,,Overcast,200,2013-06-26 13:11:00
8:31 AM,71.6,69.8,94,29.69,5.0,SSW,5.8,-,N/A,,Overcast,210,2013-06-26 13:31:00
8:51 AM,73.4,69.8,88,29.69,7.0,SW,6.9,-,N/A,,Overcast,220,2013-06-26 13:51:00
9:11 AM,73.4,68.0,83,29.70,7.0,South,4.6,-,N/A,,Mostly Cloudy,170,2013-06-26 14:11:00
9:31 AM,75.2,69.8,83,29.70,7.0,SSW,3.5,-,N/A,,Scattered Clouds,200,2013-06-26 14:31:00
9:50 AM,77.0,69.8,78,29.70,10.0,SSW,3.5,-,N/A,,Scattered Clouds,210,2013-06-26 14:50:00
10:11 AM,77.0,69.8,78,29.72,10.0,WSW,6.9,-,N/A,,Mostly Cloudy,250,2013-06-26 15:11:00
10:31 AM,77.0,68.0,74,29.72,10.0,West,6.9,-,N/A,,Overcast,270,2013-06-26 15:31:00
10:51 AM,78.8,68.0,69,29.73,10.0,West,5.8,-,N/A,,Overcast,260,2013-06-26 15:51:00
11:11 AM,78.8,68.0,69,29.73,10.0,West,5.8,-,N/A,,Scattered Clouds,270,2013-06-26 16:11:00
11:31 AM,80.6,68.0,65,29.72,10.0,West,6.9,-,N/A,,Scattered Clouds,260,2013-06-26 16:31:00
11:51 AM,80.6,66.2,61,29.71,10.0,West,10.4,-,N/A,Thunderstorm,Scattered Clouds,280,2013-06-26 16:51:00
12:11 PM,82.4,64.4,54,29.72,10.0,West,11.5,16.1,N/A,,Scattered Clouds,260,2013-06-26 17:11:00
12:31 PM,82.4,64.4,54,29.72,10.0,West,6.9,-,N/A,,Scattered Clouds,270,2013-06-26 17:31:00
12:51 PM,82.4,62.6,51,29.71,10.0,West,8.1,16.1,N/A,,Clear,260,2013-06-26 17:51:00
1:10 PM,82.4,64.4,54,29.70,10.0,West,10.4,-,N/A,,Clear,280,2013-06-26 18:10:00
1:31 PM,86.0,64.4,48,29.71,10.0,West,6.9,-,N/A,,Clear,260,2013-06-26 18:31:00
1:51 PM,86.0,66.2,51,29.71,10.0,WSW,8.1,-,N/A,Thunderstorm,Clear,250,2013-06-26 18:51:00
2:11 PM,82.4,64.4,54,29.71,10.0,West,6.9,-,N/A,,Mostly Cloudy,260,2013-06-26 19:11:00
2:30 PM,82.4,66.2,58,29.72,10.0,WSW,9.2,-,N/A,,Mostly Cloudy,250,2013-06-26 19:30:00
2:51 PM,82.4,68.0,62,29.72,10.0,WNW,9.2,-,N/A,,Scattered Clouds,300,2013-06-26 19:51:00
3:10 PM,80.6,64.4,58,29.72,10.0,WNW,11.5,-,N/A,,Scattered Clouds,300,2013-06-26 20:10:00
3:28 PM,86.0,68.0,55,29.72,10.0,West,10.4,18.4,N/A,,Scattered Clouds,270,2013-06-26 20:28:00
3:50 PM,80.6,64.4,58,29.73,10.0,NW,13.8,17.3,N/A,,Scattered Clouds,310,2013-06-26 20:50:00
4:11 PM,82.4,66.2,58,29.74,10.0,NW,13.8,21.9,N/A,,Scattered Clouds,320,2013-06-26 21:11:00
4:31 PM,80.6,62.6,54,29.74,10.0,NW,11.5,19.6,N/A,,Clear,320,2013-06-26 21:31:00
4:50 PM,82.4,64.4,54,29.74,10.0,NW,11.5,-,N/A,,Clear,320,2013-06-26 21:50:00
5:11 PM,82.4,64.4,54,29.74,10.0,NW,12.7,18.4,N/A,,Clear,320,2013-06-26 22:11:00
5:31 PM,82.4,62.6,51,29.75,10.0,NW,12.7,18.4,N/A,,Clear,310,2013-06-26 22:31:00
5:51 PM,80.6,62.6,54,29.75,10.0,NNW,9.2,16.1,N/A,,Clear,340,2013-06-26 22:51:00
6:10 PM,80.6,62.6,54,29.75,10.0,NNW,8.1,-,N/A,,Clear,330,2013-06-26 23:10:00
6:31 PM,80.6,62.6,54,29.75,10.0,NNW,6.9,-,N/A,,Clear,330,2013-06-26 23:31:00
6:51 PM,78.8,62.6,57,29.75,10.0,NNW,5.8,-,N/A,,Clear,330,2013-06-26 23:51:00
7:11 PM,78.8,62.6,57,29.75,10.0,NW,8.1,-,N/A,,Clear,320,2013-06-27 00:11:00
7:31 PM,78.8,62.6,57,29.76,10.0,NW,6.9,-,N/A,,Clear,310,2013-06-27 00:31:00
7:51 PM,78.8,62.6,57,29.77,10.0,NW,6.9,-,N/A,,Clear,310,2013-06-27 00:51:00
8:11 PM,77.0,60.8,57,29.78,10.0,NW,8.1,-,N/A,,Clear,310,2013-06-27 01:11:00
8:31 PM,75.2,60.8,61,29.77,10.0,NW,6.9,-,N/A,,Clear,310,2013-06-27 01:31:00
8:51 PM,73.4,60.8,65,29.77,10.0,NW,4.6,-,N/A,,Clear,320,2013-06-27 01:51:00
9:10 PM,73.4,60.8,65,29.78,10.0,NNW,4.6,-,N/A,,Clear,330,2013-06-27 02:10:00
9:31 PM,71.6,60.8,69,29.80,10.0,NW,4.6,-,N/A,,Clear,310,2013-06-27 02:31:00
9:51 PM,71.6,60.8,69,29.81,10.0,WNW,4.6,-,N/A,,Clear,300,2013-06-27 02:51:00
10:11 PM,69.8,60.8,73,29.82,10.0,NW,4.6,-,N/A,,Clear,310,2013-06-27 03:11:00
10:31 PM,69.8,60.8,73,29.82,10.0,WNW,4.6,-,N/A,,Clear,300,2013-06-27 03:31:00
10:51 PM,69.8,60.8,73,29.80,10.0,Calm,Calm,-,N/A,,Clear,0,2013-06-27 03:51:00
11:11 PM,68.0,60.8,78,29.81,10.0,Calm,Calm,-,N/A,,Clear,0,2013-06-27 04:11:00
11:30 PM,68.0,62.6,83,29.82,10.0,Calm,Calm,-,N/A,,Clear,0,2013-06-27 04:30:00
11:51 PM,69.8,62.6,78,29.82,10.0,Calm,Calm,-,N/A,,Clear,0,2013-06-27 04:51:00